Location: Unspecified
(51.0950°N, 12.9690°E)
Time: 05:37:09
(UTC+00:00)

ATLAS 3B R/B - Pass Details

Date: 28 May 2022
Orbit: 976 x 1218 km, 63.8° (Epoch: 20 June)

Event Time Altitude Azimuth Distance (km) Brightness Sun altitude
Rises 23:05:24 0° 305° (NW) 4,011 6.2 -17.3°
Reaches altitude 10° 23:10:42 10° 273° (W) 3,100 5.1 -17.3°
Maximum altitude 23:12:32 11° 259° (WSW) 3,034 4.9 -17.3°
Drops below altitude 10° 23:14:23 10° 244° (WSW) 3,126 4.9 -17.3°
Enters shadow 23:16:04 - 232° (SW) 3,334 4.9 -17.3°
